Wayne, NE

9:19 AM CST on February 27, 2017 (GMT -0600)
Wayne Municipal

Weather History for KLCG - August, 2013

Change the Weather History Date:

Tuesday, August 13, 2013

  Actual Average (KOFK) Record (KOFK)
Temperature  
Mean Temperature 66 °F -  
Max Temperature 77 °F 83 °F 102 °F (1938)
Min Temperature 57 °F 62 °F 46 °F (1964)
Cooling Degree Days 2    
Growing Degree Days 16 (Base 50)    
Moisture  
Dew Point 58 °F    
Average Humidity 78    
Maximum Humidity 97    
Minimum Humidity 44    
Precipitation  
Precipitation 0.00 in - - ()
Sea Level Pressure  
Sea Level Pressure 30.16 in    
Wind  
Wind Speed 2 mph (ENE)    
Max Wind Speed 7 mph    
Max Gust Speed -    
Visibility 9 miles    
Events      
Averages and records for this station are not official NWS values.
T = Trace of Precipitation, MM = Missing Value Source: NWS Daily Summary

Daily Weather History Graph

Daily Weather History Graph

Search for Another Location

Airport or City:

Trip Planner

Search our weather history database for the weather conditions in past years. The results will help you decide how hot, cold, wet, or windy it might be!

Date:

Astronomy

Aug. 13, 2013 Rise Set
Actual Time 6:33 AM CDT 8:31 PM CDT
Civil Twilight 6:03 AM CDT 9:01 PM CDT
Nautical Twilight 5:25 AM CDT 9:38 PM CDT
Astronomical Twilight 4:45 AM CDT 10:18 PM CDT
Moon 1:38 PM CDT (8/13) 11:57 PM CDT (8/13)
Length of Visible Light 14h 58m
Length of Day
13h 57m
Waxing Crescent, 42% of the Moon is Illuminated
Aug 13
Waxing Crescent
Aug 14
First Quarter
Aug 20
Full
Aug 28
Last Quarter
Sep 5
New

Hourly Weather History & Observations

Time (CDT) Temp. Dew Point Humidity Pressure Visibility Wind Dir Wind Speed Gust Speed Precip Events Conditions
12:15 AM 61.2 °F 60.1 °F 96% 30.12 in 7.0 mi NNE 3.5 mph - N/A   Clear
12:35 AM 61.3 °F 60.4 °F 97% 30.12 in 5.0 mi Calm Calm - N/A   Clear
12:55 AM 61.0 °F 60.1 °F 97% 30.12 in 7.0 mi Calm Calm - N/A   Clear
1:15 AM 59.9 °F 59.0 °F 97% 30.12 in 10.0 mi Calm Calm - N/A   Clear
1:35 AM 59.7 °F 58.6 °F 96% 30.12 in 7.0 mi Calm Calm - N/A   Clear
1:55 AM 59.0 °F 58.1 °F 97% 30.12 in 7.0 mi Calm Calm - N/A   Clear
2:15 AM 58.5 °F 57.6 °F 97% 30.13 in 7.0 mi Calm Calm - N/A   Scattered Clouds
2:35 AM 58.8 °F 57.9 °F 97% 30.14 in 10.0 mi Calm Calm - N/A   Mostly Cloudy
2:55 AM 59.5 °F 58.6 °F 97% 30.14 in 10.0 mi Calm Calm - N/A   Overcast
3:15 AM 60.6 °F 59.4 °F 96% 30.13 in 10.0 mi Calm Calm - N/A   Overcast
3:35 AM 60.1 °F 59.0 °F 96% 30.13 in 10.0 mi NNE 3.5 mph - N/A   Mostly Cloudy
3:55 AM 59.0 °F 58.1 °F 97% 30.13 in 10.0 mi NNE 3.5 mph - N/A   Scattered Clouds
4:15 AM 59.0 °F 57.7 °F 96% 30.13 in 7.0 mi Calm Calm - N/A   Scattered Clouds
4:35 AM 58.3 °F 57.4 °F 97% 30.14 in 7.0 mi Calm Calm - N/A   Scattered Clouds
4:55 AM 58.6 °F 57.6 °F 96% 30.14 in 10.0 mi Calm Calm - N/A   Mostly Cloudy
5:15 AM 57.9 °F 56.8 °F 96% 30.13 in 7.0 mi Calm Calm - N/A   Scattered Clouds
5:35 AM 58.1 °F 57.2 °F 97% 30.14 in 10.0 mi Calm Calm - N/A   Mostly Cloudy
5:55 AM 58.5 °F 57.6 °F 97% 30.15 in 7.0 mi Calm Calm - N/A   Overcast
6:15 AM 59.2 °F 58.3 °F 97% 30.15 in 10.0 mi Calm Calm - N/A   Overcast
6:35 AM 59.5 °F 58.5 °F 96% 30.15 in 4.0 mi Calm Calm - N/A   Overcast
6:55 AM 59.2 °F 58.1 °F 96% 30.15 in 3.0 mi Calm Calm - N/A   Scattered Clouds
7:15 AM 58.6 °F 57.6 °F 96% 30.15 in 5.0 mi Calm Calm - N/A   Clear
7:35 AM 59.2 °F 58.3 °F 97% 30.16 in 5.0 mi Calm Calm - N/A   Scattered Clouds
7:55 AM 60.1 °F 59.2 °F 97% 30.17 in 5.0 mi Calm Calm - N/A   Clear
8:15 AM 61.2 °F 60.1 °F 96% 30.17 in 7.0 mi Calm Calm - N/A   Clear
8:35 AM 62.1 °F 60.1 °F 93% 30.17 in 7.0 mi Calm Calm - N/A   Clear
8:55 AM 63.5 °F 60.8 °F 91% 30.17 in 10.0 mi Calm Calm - N/A   Clear
9:15 AM 64.4 °F 59.9 °F 85% 30.18 in 10.0 mi Calm Calm - N/A   Clear
9:35 AM 65.3 °F 60.1 °F 83% 30.19 in 10.0 mi Calm Calm - N/A   Clear
9:55 AM 66.9 °F 58.8 °F 75% 30.19 in 10.0 mi NNE 3.5 mph - N/A   Clear
10:15 AM 67.6 °F 58.6 °F 73% 30.19 in 10.0 mi NE 3.5 mph - N/A   Clear
10:35 AM 68.5 °F 58.5 °F 70% 30.19 in 10.0 mi Calm Calm - N/A   Clear
10:55 AM 69.6 °F 58.3 °F 67% 30.20 in 10.0 mi ENE 4.6 mph - N/A   Clear
11:15 AM 70.3 °F 58.1 °F 65% 30.20 in 10.0 mi NNE 3.5 mph - N/A   Clear
11:35 AM 71.4 °F 58.6 °F 64% 30.20 in 10.0 mi ENE 4.6 mph - N/A   Clear
11:55 AM 72.3 °F 59.9 °F 65% 30.20 in 10.0 mi ENE 6.9 mph - N/A   Scattered Clouds
12:15 PM 72.5 °F 57.7 °F 60% 30.20 in 10.0 mi ENE 5.8 mph - N/A   Scattered Clouds
12:35 PM 73.4 °F 56.8 °F 56% 30.20 in 10.0 mi NE 4.6 mph - N/A   Mostly Cloudy
12:55 PM 73.4 °F 56.8 °F 56% 30.20 in 10.0 mi ENE 5.8 mph - N/A   Scattered Clouds
1:15 PM 73.9 °F 57.6 °F 56% 30.19 in 10.0 mi East 5.8 mph - N/A   Scattered Clouds
1:35 PM 74.7 °F 58.3 °F 57% 30.19 in 10.0 mi East 5.8 mph - N/A   Scattered Clouds
1:55 PM 75.2 °F 57.4 °F 54% 30.18 in 10.0 mi NE 6.9 mph - N/A   Clear
2:15 PM 74.8 °F 55.8 °F 51% 30.18 in 10.0 mi NE 5.8 mph - N/A   Clear
2:35 PM 75.6 °F 56.1 °F 51% 30.18 in 10.0 mi ENE 5.8 mph - N/A   Clear
2:55 PM 76.5 °F 55.9 °F 49% 30.18 in 10.0 mi East 6.9 mph - N/A   Scattered Clouds
3:15 PM 75.2 °F 54.9 °F 49% 30.17 in 10.0 mi ENE 5.8 mph - N/A   Scattered Clouds
3:35 PM 76.6 °F 54.7 °F 46% 30.17 in 10.0 mi ENE 4.6 mph - N/A   Scattered Clouds
3:55 PM 76.5 °F 53.6 °F 45% 30.17 in 10.0 mi Calm Calm - N/A   Clear
4:15 PM 76.3 °F 53.8 °F 45% 30.16 in 10.0 mi NNE 4.6 mph - N/A   Scattered Clouds
4:35 PM 76.3 °F 53.1 °F 44% 30.16 in 10.0 mi East 4.6 mph - N/A   Scattered Clouds
4:55 PM 76.5 °F 54.1 °F 46% 30.15 in 10.0 mi ENE 3.5 mph - N/A   Scattered Clouds
5:15 PM 76.1 °F 54.7 °F 47% 30.15 in 10.0 mi NE 4.6 mph - N/A   Scattered Clouds
5:35 PM 75.9 °F 54.9 °F 48% 30.14 in 10.0 mi NE 6.9 mph - N/A   Mostly Cloudy
5:55 PM 73.4 °F 57.4 °F 57% 30.14 in 10.0 mi Calm Calm - N/A   Scattered Clouds
6:55 PM 74.3 °F 57.2 °F 55% 30.13 in 10.0 mi Calm Calm - N/A   Clear
7:15 PM 73.8 °F 57.9 °F 58% 30.14 in 10.0 mi East 3.5 mph - N/A   Clear
7:35 PM 72.5 °F 58.1 °F 60% 30.14 in 10.0 mi East 4.6 mph - N/A   Clear
7:55 PM 70.5 °F 60.4 °F 70% 30.15 in 10.0 mi Calm Calm - N/A   Clear
8:15 PM 68.9 °F 61.9 °F 78% 30.15 in 10.0 mi Calm Calm - N/A   Scattered Clouds
8:35 PM 67.5 °F 62.6 °F 84% 30.16 in 10.0 mi ESE 3.5 mph - N/A   Mostly Cloudy
8:55 PM 65.8 °F 61.7 °F 86% 30.16 in 10.0 mi Calm Calm - N/A   Scattered Clouds
9:15 PM 64.6 °F 60.6 °F 87% 30.16 in 4.0 mi Calm Calm - N/A   Scattered Clouds
9:35 PM 63.5 °F 59.5 °F 87% 30.16 in 7.0 mi Calm Calm - N/A   Clear
9:55 PM 62.8 °F 59.2 °F 88% 30.17 in 10.0 mi Calm Calm - N/A   Clear
10:15 PM 61.2 °F 58.5 °F 91% 30.17 in 10.0 mi Calm Calm - N/A   Clear
10:35 PM 61.7 °F 58.6 °F 90% 30.17 in 10.0 mi Calm Calm - N/A   Scattered Clouds
10:55 PM 61.0 °F 59.0 °F 93% 30.18 in 10.0 mi Calm Calm - N/A   Scattered Clouds
11:15 PM 59.9 °F 57.9 °F 93% 30.18 in 10.0 mi Calm Calm - N/A   Scattered Clouds
11:35 PM 58.3 °F 56.5 °F 94% 30.18 in 10.0 mi Calm Calm - N/A   Clear
11:55 PM 58.5 °F 56.5 °F 93% 30.19 in 10.0 mi Calm Calm - N/A   Clear